LEAP-1

operational
NORAD ID: 65321 Int'l Des: 2025-188 Owner: DHRUVA Country: IN
LEOCIRCULARRETROGRADESSO

Über LEAP-1

Beschreibung wird geladen...

Live-Position

3D-Globus wird geladen...

Nächste Überflüge

Höhenverlauf

Altitude vs Time

uPlot chart will show altitude changes over time

Zweizeiliger Elementsatz

1 65321U 25188G 26063.18227541 .00003870 00000-0 39709-3 0 9997
2 65321 97.7445 139.5572 0003228 171.3832 188.7442 14.90985687 28200
Epoch: 4. März 2026 • Age: 23 hours

Aktueller Status

Höhe 604.1 km
Geschwindigkeit 7.56 km/s
Subsatellitenpunkt 62.25°N, 166.72°W
Startdatum 26. Aug. 2025
Alter 0.5 years
Typ other

Technische Details

Klassifizierung Payload
Masse 25.00 kg
Trockenmasse 25.00 kg
Gesamtmasse 25.00 kg
Länge 0.30 m
Durchmesser 0.30 m
Spannweite 1.50 m
Form Box + 2 pan
Hersteller DHRUVA
Bus-Typ P-30
Phasenstatus In Orbit
Besitzer/Staat DHRUVA/IN

Große Konstellationen

Loading constellations...